STARLINK-32330, 61850

Orbit data source: Space-Track

STARLINK-32330, 61850 is a payload satellite owned by SpaceX/Seattle (US) in LEO that was launched on Thu, 07 Nov 2024 UTC via an FALCON 9 launch vehicle from the Air Force Eastern Test Range (AFETR). Payload-class satellites include a variety of spacecraft equipped with specific instruments for various scientific and technological missions. These include communications satellites like Starlink; space stations such as the ISS; scientific satellites like the Hubble; Earth observation satellites from companies like Planet Labs, Umbra, and HawkEye 360; GPS; miniature CubeSats for education and research; and military/defense satellites.

Loading next visibility...
Identifier
61850, 2024-202F
Orbit
LEO
Last TLE update
15 hours ago
Origin
Manufacturer
SpaceX/Seattle
Mission
Operational Commercial Communications
Bus & Motor
STARLINK V2M, Unknown motor
Mass
730 kg wet, ~700 kg dry
Launch date (UTC)
2024-11-07 (8 months ago)
Launch vehicle
FALCON 9
Launch site
Air Force Eastern Test Range (AFETR)
Object type
Payload
Rocket body
Debris
Shape & HBR
Box + 2 Pan, 29 m
Radar Cross Section
33.884 m², Large (>1 m²)

Expand to show TLE details & history

TLE from 15 hours ago
0 STARLINK-32330
1 61850U 24202F   25188.69866450  .00000174  00000-0  15837-4 0  9998
2 61850  43.0031 181.2071 0001353 275.5717  84.4980 15.27577903 37873
Epoch: 2025-07-07T16:46Z
TLE epoch observation values (Epoch: 2025-07-07T16:46:04.612Z)
Latitude
-0.00006°
Longitude
3.78356°
Altitude
482.742 km
Speed
7.626 km/s
True Right ascension
12h 04m 49s
True Declination
0° 00' 00"
Sunlit
Object was in daylight at epoch
Visualization orbit readout
Latitude
-29.91665°
Longitude
-141.9247°
Altitude
490.481 km
Speed
7.621 km/s
Apparent Right ascension
04h 50m 04s
Apparent Declination
-42° 44' 13"
Sunlit
Object is in daylight
Visualization observer readout
Local Sidereal Time
19:58:22
Azimuth
110.356° ESE
Elevation
-54.994°
Doppler factor
1
Orbital elements
Apogee altitude
485.929 km
Perigee altitude
484.071 km
Semi-major axis
6,863.137 km
Eccentricity
0.00014
Inclination
43.0031°
RAAN
181.2071°
Arg. of periapsis
275.5717°
True anomaly
Unknown
Mean anomaly
84.498°
Eccentric anomaly
Unknown
Mean motion
3.81733 °/min
Orbital period
94.31 mins
BSTAR
0.000015837
Loading maneuver chart data...
Loading SW <> Apogee altitude chart data...
Loading historical data...
Loading historical data...
Loading historical data...
Loading historical data...
Loading historical data...
Loading historical data...
Loading historical data...

STARLINK-32330 Visibility forecast

Observer location: undefined°, undefined°

Span
Click to sort rows by Start time (UTC) header in descending order
Start Az.
Max El. time (UTC)
Max El. Az.
Max El.
End time (UTC)
End Az.
5 mins2025-07-08 08:57:45.092Z266.865° W2025-07-08 09:00:45.092Z205.129° SW23.637°2025-07-08 09:02:45.092Z164.104° S
4 mins2025-07-09 01:55:45.092Z175.726° S2025-07-09 01:56:45.092Z153.882° SSE20.431°2025-07-09 01:59:45.092Z96.217° ESE
5 mins2025-07-09 03:33:45.092Z250.135° W2025-07-09 03:35:45.092Z117.938° SE44.989°2025-07-09 03:38:45.092Z72.048° E
5 mins2025-07-09 05:12:45.092Z290.614° WNW2025-07-09 05:14:45.092Z351.422° N37.936°2025-07-09 05:17:45.092Z72.844° E
6 mins2025-07-09 06:51:45.092Z290.679° WNW2025-07-09 06:53:45.092Z318.59° NNW43.763°2025-07-09 06:57:45.092Z104.656° ESE
|